Voltar ao catálogo

STARLINK-31546

AtivoComunicaçõesVLEO
NORAD 59470·PAYLOAD·🇺🇸 United States

Lançado Apr 10, 2024 de Cape Canaveral Space Force Station

Loading…

Próximas Passagens (próximas 24 horas)

TLE

AtualizadoSource: CelesTrak SupGP

Época: Sep 15, 2026, 02:47 UTC

1 59470C 24068R   26258.11645833 -.00019680  00000+0 -71260-3 0  2581
2 59470  43.0037  41.1219 0001553 269.0635 134.6870 15.27596977    15

Acompanhe STARLINK-31546 em tempo real com AllMySat

Download on the App Store